Weather History for KMCC - February, 2013

Change the Weather History Date:

Tuesday, February 26, 2013

  Actual Average (KMHR) Record (KMHR)
Temperature  
Mean Temperature 49 °F -  
Max Temperature 66 °F 57 °F 71 °F (2015)
Min Temperature 32 °F 38 °F 26 °F (2011)
Degree Days  
Heating Degree Days 16    
Moisture  
Dew Point 29 °F    
Average Humidity 53    
Maximum Humidity 87    
Minimum Humidity 18    
Precipitation  
Precipitation 0.00 in - - ()
Sea Level Pressure  
Sea Level Pressure 30.18 in    
Wind  
Wind Speed 8 mph (NNW)    
Max Wind Speed 22 mph    
Max Gust Speed 30 mph    
Visibility 10 miles    
Events      
Averages and records for this station are not official NWS values.
T = Trace of Precipitation, MM = Missing Value Source: NWS Daily Summary

Daily Weather History Graph

Daily Weather History Graph

Search for Another Location

Airport or City:

Trip Planner

Search our weather history database for the weather conditions in past years. The results will help you decide how hot, cold, wet, or windy it might be!

Date:

Astronomy

Feb. 26, 2013 Rise Set
Actual Time 6:41 AM PST 5:55 PM PST
Civil Twilight 6:14 AM PST 6:22 PM PST
Nautical Twilight 5:44 AM PST 6:53 PM PST
Astronomical Twilight 5:13 AM PST 7:24 PM PST
Moon 7:16 PM PST (2/26) 6:48 AM PST (2/26)
Length of Visible Light 12h 07m
Length of Day
11h 14m
Full, 99% of the Moon is Illuminated
Feb 26
Full
Mar 4
Last Quarter
Mar 11
New
Mar 19
First Quarter
Mar 27
Full

Hourly Weather History & Observations

Time (PST) Temp. Windchill Dew Point Humidity Pressure Visibility Wind Dir Wind Speed Gust Speed Precip Events Conditions
12:10 AM 41.0 °F - 32.0 °F 70% 30.20 in 10.0 mi Calm Calm - N/A   Clear
12:30 AM 41.0 °F 37.1 °F 32.0 °F 70% 30.20 in 10.0 mi NE 5.8 mph - N/A   Clear
12:50 AM 39.2 °F 35.9 °F 32.0 °F 75% 30.21 in 10.0 mi NNE 4.6 mph - N/A   Clear
1:10 AM 39.2 °F 37.0 °F 32.0 °F 75% 30.21 in 10.0 mi NNW 3.5 mph - N/A   Clear
1:30 AM 39.2 °F 35.9 °F 32.0 °F 75% 30.21 in 10.0 mi NW 4.6 mph - N/A   Clear
1:50 AM 37.4 °F 33.8 °F 32.0 °F 81% 30.22 in 10.0 mi WNW 4.6 mph - N/A   Clear
2:10 AM 35.6 °F 32.8 °F 32.0 °F 87% 30.21 in 9.0 mi North 3.5 mph - N/A   Clear
2:30 AM 35.6 °F 31.7 °F 30.2 °F 81% 30.21 in 10.0 mi WNW 4.6 mph - N/A   Unknown
2:50 AM 35.6 °F 32.8 °F 32.0 °F 87% 30.21 in 10.0 mi WNW 3.5 mph - N/A   Unknown
3:10 AM 35.6 °F 32.8 °F 32.0 °F 87% 30.20 in 10.0 mi North 3.5 mph - N/A   Clear
3:30 AM 33.8 °F 27.0 °F 28.4 °F 81% 30.20 in 10.0 mi WNW 8.1 mph - N/A   Clear
3:50 AM 33.8 °F 27.0 °F 28.4 °F 81% 30.20 in 10.0 mi North 8.1 mph - N/A   Clear
4:10 AM 35.6 °F 31.7 °F 28.4 °F 75% 30.21 in 10.0 mi NW 4.6 mph - N/A   Clear
4:30 AM 35.6 °F 29.9 °F 28.4 °F 75% 30.21 in 10.0 mi NW 6.9 mph - N/A   Clear
4:50 AM 35.6 °F 28.6 °F 28.4 °F 75% 30.21 in 10.0 mi WNW 9.2 mph - N/A   Clear
5:10 AM 33.8 °F 27.7 °F 28.4 °F 81% 30.21 in 10.0 mi NW 6.9 mph - N/A   Clear
5:30 AM 35.6 °F 30.7 °F 28.4 °F 75% 30.21 in 10.0 mi North 5.8 mph - N/A   Clear
5:50 AM 32.0 °F 26.4 °F 26.6 °F 80% 30.21 in 10.0 mi NW 5.8 mph - N/A   Clear
6:10 AM 32.0 °F 26.4 °F 26.6 °F 80% 30.21 in 10.0 mi NNW 5.8 mph - N/A   Clear
6:30 AM 32.0 °F 28.7 °F 26.6 °F 80% 30.21 in 10.0 mi NW 3.5 mph - N/A   Clear
6:50 AM 33.8 °F - 28.4 °F 81% 30.21 in 10.0 mi Calm Calm - N/A   Clear
7:10 AM 35.6 °F 31.7 °F 28.4 °F 75% 30.22 in 10.0 mi NW 4.6 mph - N/A   Clear
7:30 AM 35.6 °F 31.7 °F 28.4 °F 75% 30.22 in 10.0 mi NW 4.6 mph - N/A   Clear
7:50 AM 37.4 °F 32.8 °F 30.2 °F 75% 30.23 in 10.0 mi NNW 5.8 mph - N/A   Clear
8:10 AM 39.2 °F 35.0 °F 32.0 °F 75% 30.22 in 10.0 mi NNW 5.8 mph - N/A   Clear
8:30 AM 42.8 °F 38.0 °F 32.0 °F 66% 30.23 in 10.0 mi North 8.1 mph - N/A   Clear
8:50 AM 46.4 °F 40.4 °F 32.0 °F 57% 30.22 in 10.0 mi NNW 13.8 mph 17.3 mph N/A   Clear
9:10 AM - - - N/A% 30.22 in 10.0 mi NNW 16.1 mph 19.6 mph N/A   Unknown
9:30 AM 50.0 °F - 30.2 °F 47% 30.22 in 10.0 mi NNW 16.1 mph 21.9 mph N/A   Clear
9:50 AM 53.6 °F - 28.4 °F 38% 30.22 in 10.0 mi NW 17.3 mph 25.3 mph N/A   Clear
10:10 AM 53.6 °F - 28.4 °F 38% 30.21 in 10.0 mi NW 20.7 mph 25.3 mph N/A   Clear
10:30 AM 55.4 °F - 30.2 °F 38% 30.20 in 10.0 mi NNW 15.0 mph - N/A   Clear
10:50 AM 57.2 °F - 28.4 °F 33% 30.20 in 10.0 mi NW 17.3 mph 21.9 mph N/A   Clear
11:10 AM 57.2 °F - 26.6 °F 31% 30.19 in 10.0 mi NNW 20.7 mph 26.5 mph N/A   Clear
11:30 AM 59.0 °F - 26.6 °F 29% 30.19 in 10.0 mi NW 20.7 mph 27.6 mph N/A   Clear
11:50 AM 59.0 °F - 26.6 °F 29% 30.19 in 10.0 mi NW 20.7 mph 26.5 mph N/A   Clear
12:10 PM 60.8 °F - 26.6 °F 27% 30.18 in 10.0 mi NW 19.6 mph 26.5 mph N/A   Clear
12:30 PM 62.6 °F - 26.6 °F 26% 30.18 in 10.0 mi NNW 18.4 mph 27.6 mph N/A   Clear
12:50 PM 62.6 °F - 23.0 °F 22% 30.16 in 10.0 mi NNW 17.3 mph 25.3 mph N/A   Clear
1:10 PM 64.4 °F - 19.4 °F 18% 30.15 in 10.0 mi NNW 19.6 mph 29.9 mph N/A   Clear
1:30 PM 64.4 °F - 19.4 °F 18% 30.15 in 10.0 mi NNW 21.9 mph 27.6 mph N/A   Clear
1:50 PM 64.4 °F - 19.4 °F 18% 30.14 in 10.0 mi NNW 19.6 mph 27.6 mph N/A   Clear
2:10 PM 64.4 °F - 23.0 °F 21% 30.14 in 10.0 mi North 19.6 mph 27.6 mph N/A   Clear
2:30 PM 66.2 °F - 24.8 °F 21% 30.13 in 10.0 mi NNW 21.9 mph 28.8 mph N/A   Clear
2:50 PM 64.4 °F - 23.0 °F 21% 30.14 in 10.0 mi NNW 16.1 mph 23.0 mph N/A   Clear
3:10 PM 64.4 °F - 26.6 °F 24% 30.13 in 10.0 mi NNW 12.7 mph - N/A   Clear
3:30 PM 64.4 °F - 28.4 °F 26% 30.13 in 10.0 mi NNW 15.0 mph - N/A   Clear
3:50 PM 64.4 °F - 30.2 °F 28% 30.14 in 10.0 mi NNW 11.5 mph - N/A   Clear
4:10 PM 64.4 °F - 32.0 °F 30% 30.13 in 10.0 mi North 9.2 mph - N/A   Clear
4:30 PM 64.4 °F - 26.6 °F 24% 30.13 in 10.0 mi NNW 11.5 mph - N/A   Clear
4:50 PM 62.6 °F - 28.4 °F 27% 30.13 in 10.0 mi NNW 12.7 mph 18.4 mph N/A   Clear
5:10 PM 62.6 °F - 26.6 °F 26% 30.13 in 10.0 mi NNW 13.8 mph 19.6 mph N/A   Clear
5:30 PM 59.0 °F - 26.6 °F 29% 30.12 in 10.0 mi NNW 10.4 mph - N/A   Clear
5:50 PM 57.2 °F - 28.4 °F 33% 30.13 in 10.0 mi North 8.1 mph - N/A   Clear
6:10 PM 55.4 °F - 30.2 °F 38% 30.13 in 10.0 mi North 6.9 mph - N/A   Clear
6:30 PM 53.6 °F - 30.2 °F 41% 30.14 in 10.0 mi NNW 4.6 mph - N/A   Clear
6:50 PM 50.0 °F - 32.0 °F 50% 30.14 in 10.0 mi North 6.9 mph - N/A   Clear
7:10 PM 51.8 °F - 30.2 °F 44% 30.15 in 10.0 mi North 6.9 mph - N/A   Clear
7:30 PM 53.6 °F - 28.4 °F 38% 30.16 in 10.0 mi NNW 6.9 mph - N/A   Clear
7:50 PM 53.6 °F - 30.2 °F 41% 30.16 in 10.0 mi North 5.8 mph - N/A   Clear
8:10 PM 50.0 °F - 32.0 °F 50% 30.16 in 10.0 mi NNW 6.9 mph - N/A   Clear
8:30 PM 48.2 °F - 32.0 °F 54% 30.17 in 10.0 mi NNW 3.5 mph - N/A   Clear
8:50 PM 48.2 °F - 32.0 °F 54% 30.18 in 10.0 mi NW 3.5 mph - N/A   Clear
9:10 PM 48.2 °F - 32.0 °F 54% 30.18 in 10.0 mi NW 4.6 mph - N/A   Clear
9:30 PM 46.4 °F 45.2 °F 32.0 °F 57% 30.18 in 10.0 mi NW 3.5 mph - N/A   Clear
9:50 PM 46.4 °F 45.2 °F 32.0 °F 57% 30.18 in 10.0 mi North 3.5 mph - N/A   Clear
10:10 PM 46.4 °F 44.3 °F 32.0 °F 57% 30.19 in 10.0 mi North 4.6 mph - N/A   Clear
10:30 PM 42.8 °F 40.1 °F 32.0 °F 66% 30.20 in 10.0 mi NW 4.6 mph - N/A   Clear
10:50 PM 42.8 °F - 32.0 °F 66% 30.20 in 10.0 mi Calm Calm - N/A   Clear
11:10 PM 44.6 °F - 32.0 °F 61% 30.21 in 10.0 mi Calm Calm - N/A   Clear
11:30 PM 41.0 °F - 32.0 °F 70% 30.21 in 10.0 mi North - - N/A   Clear
11:50 PM 42.8 °F - 32.0 °F 66% 30.21 in 10.0 mi Calm Calm - N/A   Clear